Torna al catalogo

STARLINK-11176

AttivoComunicazioniVLEO
NORAD 60060·PAYLOAD·🇺🇸 United States

Lanciato Jun 19, 2024 da Vandenberg Space Force Base

Loading…

Prossimi Passaggi (prossime 24 ore)

TLE

AggiornatoSource: CelesTrak SupGP

Epoca: Sep 14, 2026, 21:17 UTC

1 60060C 24113B   26257.88729167 -.00052626  00000+0 -43335-3 0  2573
2 60060  53.1563 338.6101 0001138  77.5586   1.8453 15.69743829    16

Traccia STARLINK-11176 in tempo reale con AllMySat

Download on the App Store